View from above orbital plane
|
View from above satellite
|
Ground track
|
The orbit data is extracted from the following two-line orbital elements,
1 41634U 16043A 22148.50337922 .00000772 00000-0 91102-4 0 9993
2 41634 75.0031 184.8161 0007027 17.4803 342.6615 14.86151149320691
Epoch (UTC): | 28 May 2022 12:04:51 |
Eccentricity: | 0.0007027 |
inclination: | 75.0031° |
perigee height: | 605 km |
apogee height: | 615 km |
right ascension of ascending node: | 184.8161° |
argument of perigee: | 17.4803° |
revolutions per day: | 14.86151149 |
mean anomaly at epoch: | 342.6615° |
orbit number at epoch: | 32069 |
The dashed part of the orbit path shows where the satellite is in the earth's shadow,
|
|